Highland Valley (176, 972) Station Data

Red Flag Warning: No
Fire Weather Zone: 250
SDGE Region: Ramona
Lat/Lon: 33.029/-116.936

Observations

Time Wind Speed/Gust Temp(F) RH Fuel Moist Fuel Temp(F) Dewpt(F) Tmax(F) Tmin(F) Accum Precip 10-min Precip SL Press(mb)
6/22 5:00am 0 0 G 0 54° 99% - - 54° 64.6° 53.8° - - -
6/22 4:50am 0 0 G 0 54° 99% - - 54° 64.6° 53.8° - - -
6/22 4:40am 0 0 G 0 55° 99% - - 55° 64.6° 54.3° - - -
6/22 4:30am 0 0 G 0 55° 99% - - 55° 64.6° 54.4° - - -
6/22 4:20am 0 0 G 0 55° 99% - - 54° 64.6° 54.4° - - -
6/22 4:10am 0 0 G 0 55° 98% - - 54° 64.6° 54.4° - - -
6/22 4:00am 0 0 G 0 55° 98% - - 55° 64.6° 54.4° - - -
6/22 3:50am 0 0 G 0 55° 98% - - 54° 64.6° 54.4° - - -
6/22 3:40am 334 0 G 0 55° 97% - - 55° 64.6° 54.7° - - -
6/22 3:30am 334 0 G 1 56° 97% - - 55° 64.6° 55.4° - - -
6/22 3:20am 316 1 G 2 57° 97% - - 56° 64.6° 56.3° - - -
6/22 3:10am 284 1 G 2 57° 96% - - 56° 64.6° 56.3° - - -
6/22 3:00am 349 1 G 3 57° 96% - - 56° 64.6° 56.5° - - -
6/22 2:50am 332 2 G 2 58° 95% - - 57° 64.6° 57.3° - - -
6/22 2:40am 306 3 G 4 58° 95% - - 57° 64.6° 58° - - -
6/22 2:30am 317 1 G 2 58° 94% - - 57° 64.6° 58° - - -
6/22 2:20am 330 1 G 1 59° 93% - - 57° 64.6° 58.3° - - -
6/22 2:10am 330 1 G 2 59° 92% - - 57° 64.6° 58.9° - - -
6/22 2:00am 331 1 G 2 59° 89% - - 56° 64.6° 59° - - -
6/22 1:50am 158 0 G 1 59° 87% - - 55° 64.6° 59.1° - - -
6/22 1:40am 324 1 G 3 60° 86% - - 55° 64.6° 59.2° - - -
6/22 1:30am 332 2 G 3 61° 84% - - 56° 64.6° 60.2° - - -
6/22 1:20am 318 1 G 3 61° 84% - - 56° 64.6° 60.8° - - -
6/22 1:10am 296 0 G 1 61° 83% - - 56° 64.6° 60.8° - - -
6/22 1:00am 246 1 G 1 61° 82% - - 56° 64.6° 60.8° - - -
6/22 12:50am 324 1 G 2 61° 80% - - 55° 64.6° 60.8° - - -
6/22 12:40am 321 1 G 2 62° 78% - - 56° 64.6° 61.9° - - -
6/22 12:30am 319 1 G 1 63° 77% - - 56° 64.6° 62.9° - - -
6/22 12:20am 315 1 G 1 64° 76% - - 56° 64.6° 63.3° - - -
6/22 12:10am 233 0 G 1 64° 76% - - 57° 64.6° 64.1° - - -
6/22 12:00am 233 0 G 1 64° 76% - - 56° 95.1° 56.6° - - -
6/21 11:50pm 327 1 G 2 64° 76% - - 56° 95.1° 56.6° - - -
6/21 11:40pm 19 1 G 2 65° 71% - - 55° 95.1° 56.6° - - -
6/21 11:30pm 198 0 G 1 67° 72% - - 58° 95.1° 56.6° - - -
6/21 11:20pm 182 1 G 2 67° 72% - - 57° 95.1° 56.6° - - -
6/21 11:10pm 141 2 G 2 66° 73% - - 57° 95.1° 56.6° - - -
6/21 11:00pm 126 2 G 2 66° 72% - - 57° 95.1° 56.6° - - -
6/21 10:50pm 115 0 G 1 67° 70% - - 57° 95.1° 56.6° - - -
6/21 10:40pm 0 0 G 0 67° 69% - - 57° 95.1° 56.6° - - -
6/21 10:30pm 0 0 G 0 68° 68% - - 57° 95.1° 56.6° - - -
6/21 10:20pm 0 0 G 0 68° 66% - - 57° 95.1° 56.6° - - -
6/21 10:10pm 215 0 G 1 69° 66% - - 57° 95.1° 56.6° - - -
6/21 10:00pm 292 1 G 2 69° 66% - - 57° 95.1° 56.6° - - -
6/21 9:50pm 320 2 G 4 69° 65% - - 57° 95.1° 56.6° - - -
6/21 9:40pm 323 3 G 4 70° 64% - - 57° 95.1° 56.6° - - -
6/21 9:30pm 322 3 G 4 70° 62% - - 57° 95.1° 56.6° - - -
6/21 9:20pm 322 3 G 4 71° 61% - - 57° 95.1° 56.6° - - -
6/21 9:10pm 330 3 G 4 72° 59% - - 57° 95.1° 56.6° - - -
6/21 9:00pm 313 2 G 3 74° 57% - - 57° 95.1° 56.6° - - -
6/21 8:50pm 291 3 G 3 74° 56% - - 58° 95.1° 56.6° - - -
6/21 8:40pm 291 3 G 4 74° 56% - - 58° 95.1° 56.6° - - -
6/21 8:30pm 304 3 G 3 74° 55% - - 57° 95.1° 56.6° - - -
6/21 8:20pm 317 4 G 5 74° 55% - - 57° 95.1° 56.6° - - -
6/21 8:10pm 312 4 G 5 75° 54% - - 57° 95.1° 56.6° - - -
6/21 8:00pm 316 6 G 7 76° 53% - - 57° 95.1° 56.6° - - -
6/21 7:50pm 323 6 G 8 77° 50% - - 57° 95.1° 56.6° - - -
6/21 7:40pm 324 6 G 8 79° 47% - - 57° 95.1° 56.6° - - -
6/21 7:30pm 325 6 G 7 81° 45% - - 57° 95.1° 56.6° - - -
6/21 7:20pm 319 6 G 8 82° 43% - - 57° 95.1° 56.6° - - -
6/21 7:10pm 325 6 G 7 83° 41% - - 56° 95.1° 56.6° - - -
6/21 7:00pm 330 6 G 7 83° 40% - - 56° 95.1° 56.6° - - -
6/21 6:50pm 337 7 G 8 84° 38% - - 56° 95.1° 56.6° - - -
6/21 6:40pm 339 7 G 10 84° 37% - - 55° 95.1° 56.6° - - -
6/21 6:30pm 328 7 G 9 85° 36% - - 55° 95.1° 56.6° - - -
6/21 6:20pm 306 6 G 9 86° 36% - - 55° 95.1° 56.6° - - -
6/21 6:10pm 294 7 G 9 85° 37% - - 56° 95.1° 56.6° - - -
6/21 6:00pm 289 8 G 10 85° 36% - - 56° 95.1° 56.6° - - -
6/21 5:50pm 289 8 G 10 86° 36% - - 56° 95.1° 56.6° - - -
6/21 5:40pm 286 8 G 12 86° 35% - - 55° 95.1° 56.6° - - -
6/21 5:30pm 293 8 G 11 87° 34% - - 55° 95.1° 56.6° - - -
6/21 5:20pm 295 8 G 10 88° 33% - - 55° 95.1° 56.6° - - -
6/21 5:10pm 286 8 G 11 88° 32% - - 54° 95.1° 56.6° - - -
6/21 5:00pm 294 8 G 12 89° 30% - - 54° 95.1° 56.6° - - -
6/21 4:50pm 292 7 G 10 89° 29% - - 53° 95.1° 56.6° - - -
6/21 4:40pm 288 8 G 12 89° 29% - - 53° 95.1° 56.6° - - -
6/21 4:30pm 289 8 G 10 90° 29% - - 53° 95.1° 56.6° - - -
6/21 4:20pm 288 9 G 12 89° 29% - - 53° 95.1° 56.6° - - -
6/21 4:10pm 287 10 G 14 89° 30% - - 53° 95.1° 56.6° - - -
6/21 4:00pm 297 11 G 14 89° 30% - - 53° 95.1° 56.6° - - -
6/21 3:50pm 291 10 G 14 89° 30% - - 54° 95.1° 56.6° - - -
6/21 3:40pm 296 11 G 14 89° 30% - - 53° 95.1° 56.6° - - -
6/21 3:30pm 295 11 G 13 89° 29% - - 52° 95.1° 56.6° - - -
6/21 3:20pm 292 12 G 15 90° 28% - - 52° 95.1° 56.6° - - -
6/21 3:10pm 288 11 G 14 90° 27% - - 52° 95.1° 56.6° - - -
6/21 3:00pm 289 11 G 14 90° 28% - - 53° 95.1° 56.6° - - -
6/21 2:50pm 297 12 G 17 90° 29% - - 54° 95.1° 56.6° - - -
6/21 2:40pm 299 11 G 15 91° 28% - - 54° 95.1° 56.6° - - -
6/21 2:30pm 297 11 G 14 91° 28% - - 53° 95.1° 56.6° - - -
6/21 2:20pm 285 11 G 15 92° 25% - - 52° 95.1° 56.6° - - -
6/21 2:10pm 295 11 G 15 92° 27% - - 53° 95.1° 56.6° - - -
6/21 2:00pm 305 12 G 16 92° 28% - - 54° 95.1° 56.6° - - -
6/21 1:50pm 302 12 G 16 93° 25% - - 52° 95.1° 56.6° - - -
6/21 1:40pm 307 12 G 16 94° 25% - - 53° 95.1° 56.6° - - -
6/21 1:30pm 306 11 G 16 94° 26% - - 54° 95.1° 56.6° - - -
6/21 1:20pm 304 10 G 13 93° 28% - - 55° 95.1° 56.6° - - -
6/21 1:10pm 297 11 G 14 93° 28% - - 55° 95.1° 56.6° - - -
6/21 1:00pm 301 10 G 15 95° 25% - - 53° 95.1° 56.6° - - -
6/21 12:50pm 316 10 G 15 94° 24% - - 52° 95.1° 56.6° - - -
6/21 12:40pm 318 10 G 15 94° 24% - - 52° 95.1° 56.6° - - -
6/21 12:30pm 323 9 G 13 93° 27% - - 54° 94.3° 56.6° - - -
6/21 12:20pm 313 9 G 15 92° 28% - - 54° 93.4° 56.6° - - -
6/21 12:10pm 309 10 G 15 92° 29% - - 55° 92.8° 56.6° - - -
6/21 12:00pm 315 11 G 14 91° 30% - - 55° 92.8° 56.6° - - -
6/21 11:50am 306 10 G 14 91° 30% - - 55° 92.8° 56.6° - - -
6/21 11:40am 299 9 G 12 91° 29% - - 55° 92.8° 56.6° - - -
6/21 11:30am 296 8 G 13 92° 29% - - 55° 92.8° 56.6° - - -
6/21 11:20am 307 8 G 11 92° 29% - - 54° 92.5° 56.6° - - -
6/21 11:10am 331 8 G 15 91° 31% - - 56° 92.5° 56.6° - - -
6/21 11:00am 316 7 G 10 91° 31% - - 56° 92.5° 56.6° - - -
6/21 10:50am 293 7 G 9 90° 31% - - 55° 92.5° 56.6° - - -
6/21 10:40am 328 8 G 11 89° 33% - - 56° 92.5° 56.6° - - -
6/21 10:30am 333 8 G 11 89° 32% - - 55° 92.5° 56.6° - - -
6/21 10:20am 343 8 G 11 89° 31% - - 54° 92.5° 56.6° - - -
6/21 10:10am 337 7 G 9 90° 28% - - 53° 92.5° 56.6° - - -
6/21 10:00am 321 5 G 8 91° 25% - - 51° 92.5° 56.6° - - -
6/21 9:50am 249 3 G 7 92° 24% - - 50° 92.5° 56.6° - - -
6/21 9:40am 178 2 G 4 91° 24% - - 49° 92° 56.6° - - -
6/21 9:30am 157 2 G 4 90° 25% - - 49° 90.7° 56.6° - - -
6/21 9:20am 186 2 G 4 90° 24% - - 48° 90.2° 56.6° - - -
6/21 9:10am 177 2 G 3 89° 22% - - 46° 89.6° 56.6° - - -
6/21 9:00am 175 2 G 3 88° 24% - - 46° 88.6° 56.6° - - -
6/21 8:50am 200 2 G 4 86° 28% - - 49° 86.7° 56.6° - - -
6/21 8:40am 182 2 G 4 85° 29% - - 49° 85.5° 56.6° - - -
6/21 8:30am 208 1 G 3 83° 31% - - 49° 83.8° 56.6° - - -
6/21 8:20am 183 0 G 2 81° 33% - - 50° 82.4° 56.6° - - -
6/21 8:10am 89 1 G 2 79° 36% - - 50° 80.8° 56.6° - - -
6/21 8:00am 130 1 G 3 77° 41% - - 52° 78.2° 56.6° - - -
6/21 7:50am 90 1 G 2 75° 47% - - 53° 76° 56.6° - - -
6/21 7:40am 90 1 G 3 74° 50% - - 54° 74.5° 56.6° - - -
6/21 7:30am 154 1 G 1 71° 55% - - 54° 72.3° 56.6° - - -
6/21 7:20am 208 0 G 1 68° 60% - - 54° 69.9° 56.6° - - -
6/21 7:10am 86 0 G 1 66° 65% - - 54° 66.9° 56.6° - - -
6/21 7:00am 55 1 G 1 63° 69% - - 53° 66.5° 56.6° - - -
6/21 6:50am 143 1 G 2 61° 73% - - 52° 66.5° 56.6° - - -
6/21 6:40am 128 0 G 1 60° 70% - - 50° 66.5° 56.6° - - -
6/21 6:30am 0 0 G 0 60° 70% - - 50° 66.5° 56.6° - - -
6/21 6:20am 336 0 G 2 60° 71% - - 51° 66.5° 56.6° - - -
6/21 6:10am 244 1 G 2 61° 77% - - 54° 66.5° 56.6° - - -
6/21 6:00am 184 1 G 2 59° 85% - - 54° 66.5° 56.6° - - -
6/21 5:50am 145 1 G 2 57° 85% - - 53° 66.5° 56.6° - - -
6/21 5:40am 131 1 G 1 57° 84% - - 52° 66.5° 56.7° - - -
6/21 5:30am 75 0 G 1 57° 80% - - 51° 66.5° 56.8° - - -
6/21 5:20am 86 1 G 1 58° 81% - - 52° 66.5° 57.5° - - -
6/21 5:10am 0 0 G 0 58° 80% - - 52° 66.5° 57.6° - - -
6/21 5:00am 0 0 G 0 59° 76% - - 51° 66.5° 57.6° - - -
6/21 4:50am 255 0 G 1 60° 80% - - 54° 66.5° 58° - - -
6/21 4:40am 153 0 G 1 59° 81% - - 53° 66.5° 58° - - -
6/21 4:30am 113 0 G 1 59° 80% - - 53° 66.5° 58° - - -
6/21 4:20am 114 0 G 1 60° 80% - - 53° 66.5° 58° - - -
6/21 4:10am 167 0 G 0 59° 80% - - 53° 66.5° 58° - - -
6/21 4:00am 167 0 G 1 59° 82% - - 53° 66.5° 58° - - -
6/21 3:50am 163 0 G 1 58° 79% - - 52° 66.5° 58° - - -
6/21 3:40am 92 1 G 2 60° 78% - - 53° 66.5° 59° - - -
6/21 3:30am 109 0 G 2 60° 78% - - 54° 66.5° 60° - - -
6/21 3:20am 15 0 G 0 60° 76% - - 53° 66.5° 60° - - -
6/21 3:10am 0 0 G 0 61° 76% - - 53° 66.5° 60.5° - - -
6/21 3:00am 0 0 G 0 62° 75% - - 54° 66.5° 61.4° - - -
6/21 2:50am 0 0 G 0 62° 75% - - 54° 66.5° 61.4° - - -
6/21 2:40am 0 0 G 0 62° 75% - - 54° 66.5° 61.4° - - -
6/21 2:30am 110 0 G 1 62° 75% - - 54° 66.5° 61.4° - - -
6/21 2:20am 110 0 G 1 62° 75% - - 54° 66.5° 61.4° - - -
6/21 2:10am 0 0 G 0 62° 73% - - 53° 66.5° 61.4° - - -
6/21 2:00am 116 0 G 1 62° 72% - - 53° 66.5° 61.9° - - -
6/21 1:50am 67 0 G 1 62° 68% - - 52° 66.5° 62° - - -
6/21 1:40am 324 0 G 1 64° 66% - - 52° 66.5° 62.8° - - -
6/21 1:30am 319 0 G 1 65° 67% - - 54° 66.5° 63.6° - - -
6/21 1:20am 255 0 G 1 65° 69% - - 54° 66.5° 63.6° - - -
6/21 1:10am 0 0 G 0 64° 70% - - 54° 66.5° 63.6° - - -
6/21 1:00am 0 0 G 0 64° 67% - - 53° 66.5° 63.7° - - -
6/21 12:50am 0 0 G 0 65° 69% - - 54° 66.5° 64.4° - - -
6/21 12:40am 0 0 G 0 65° 64% - - 53° 66.5° 64.6° - - -
6/21 12:30am 0 0 G 0 66° 62% - - 52° 66.5° 64.6° - - -
6/21 12:20am 1 0 G 1 66° 61% - - 52° 66.5° 64.6° - - -
6/21 12:10am 110 0 G 1 66° 62% - - 53° 66.4° 64.6° - - -
6/21 12:00am 116 0 G 1 64° 64% - - 52° 97.2° 56.8° - - -
6/20 11:50pm 95 1 G 2 65° 64% - - 52° 97.2° 56.8° - - -
6/20 11:40pm 306 1 G 2 68° 61% - - 55° 97.2° 56.8° - - -
6/20 11:30pm 188 1 G 2 67° 67% - - 55° 97.2° 56.8° - - -
6/20 11:20pm 131 1 G 3 68° 61% - - 54° 97.2° 56.8° - - -
6/20 11:10pm 283 1 G 2 71° 55% - - 54° 97.2° 56.8° - - -
6/20 11:00pm 296 2 G 2 70° 57% - - 54° 97.2° 56.8° - - -
6/20 10:50pm 317 2 G 3 72° 53% - - 54° 97.2° 56.8° - - -
6/20 10:40pm 284 0 G 0 74° 54% - - 56° 97.2° 56.8° - - -
6/20 10:30pm 233 1 G 1 73° 53% - - 55° 97.2° 56.8° - - -
6/20 10:20pm 188 0 G 1 72° 53% - - 54° 97.2° 56.8° - - -
6/20 10:10pm 202 1 G 2 72° 54% - - 54° 97.2° 56.8° - - -
6/20 10:00pm 214 0 G 1 71° 53% - - 53° 97.2° 56.8° - - -
6/20 9:50pm 92 1 G 2 72° 52% - - 53° 97.2° 56.8° - - -
6/20 9:40pm 127 1 G 2 73° 51% - - 54° 97.2° 56.8° - - -
6/20 9:30pm 19 0 G 1 76° 44% - - 52° 97.2° 56.8° - - -
6/20 9:20pm 235 2 G 3 78° 42% - - 53° 97.2° 56.8° - - -
6/20 9:10pm 247 1 G 3 78° 43% - - 53° 97.2° 56.8° - - -
6/20 9:00pm 266 1 G 2 80° 40% - - 54° 97.2° 56.8° - - -
6/20 8:50pm 192 1 G 2 80° 40% - - 53° 97.2° 56.8° - - -
6/20 8:40pm 174 0 G 2 79° 41% - - 54° 97.2° 56.8° - - -
6/20 8:30pm 0 0 G 0 80° 39% - - 53° 97.2° 56.8° - - -
6/20 8:20pm 331 1 G 2 81° 36% - - 52° 97.2° 56.8° - - -
6/20 8:10pm 311 1 G 3 83° 34% - - 52° 97.2° 56.8° - - -
6/20 8:00pm 282 2 G 2 84° 32% - - 51° 97.2° 56.8° - - -
6/20 7:50pm 287 2 G 3 85° 31% - - 51° 97.2° 56.8° - - -
6/20 7:40pm 326 3 G 3 86° 30% - - 51° 97.2° 56.8° - - -
6/20 7:30pm 327 3 G 5 86° 29% - - 51° 97.2° 56.8° - - -
6/20 7:20pm 316 4 G 5 87° 28% - - 50° 97.2° 56.8° - - -
6/20 7:10pm 328 4 G 5 88° 28% - - 50° 97.2° 56.8° - - -
6/20 7:00pm 330 5 G 6 88° 27% - - 50° 97.2° 56.8° - - -
6/20 6:50pm 316 5 G 7 89° 27% - - 50° 97.2° 56.8° - - -
6/20 6:40pm 320 5 G 7 89° 26% - - 50° 97.2° 56.8° - - -
6/20 6:30pm 300 6 G 8 90° 25% - - 49° 97.2° 56.8° - - -
6/20 6:20pm 288 7 G 10 90° 25% - - 49° 97.2° 56.8° - - -
6/20 6:10pm 286 8 G 10 90° 25% - - 50° 97.2° 56.8° - - -
6/20 6:00pm 287 7 G 9 90° 26% - - 51° 97.2° 56.8° - - -